sat.trackr.live / text

‹ back to catalog

STARLINK-37119

NORAD 68210 · 2026-053D

PAYLOAD ACTIVE UNKNOWN

§ Identity

Operator
Country
US
Launch date
2026-03-17
Launch site
AFWTR
Launch vehicle
Mass (kg)
RCS (m²)

Purposes: comms

External: N2YO · Heavens-Above · Gunter

§ Orbital elements

Epoch: 2026-09-18T21:30:30.778848Z

Period
93.90 min
Inclination
97.2848°
Eccentricity
0.0001788
Mean motion
15.33469587 rev/d
Perigee alt
464.2 km
Apogee alt
466.7 km
Semi-major
6,843.6 km
B*
4.2386e-4
RAAN
135.6340°
Arg perigee
34.1713°
Mean anomaly
325.9645°
Rev number
2,982

§ Raw data

STARLINK-371191 68210U 26053D   26261.89618957  .00013644  00000+0  42386-3 0  99962 68210  97.2848 135.6340 0001788  34.1713 325.9645 15.33469587 29828

JSON: /api/v1/satellites/68210 · /tle

For live sub-satellite position, see the globe view (requires WebGL).

§ Visibility from observer

Set your observer location to see the next 7 days of passes ≥ 10°. The values pass through the URL so the page stays shareable.

No JS? Fill the form by hand. The geolocation button needs JavaScript.